Weather History for KCRP - June, 2013

Change the Weather History Date:

Tuesday, June 4, 2013

  Actual Average Record
Temperature  
Mean Temperature 82 °F 81 °F  
Max Temperature 92 °F 90 °F 97 °F (1990)
Min Temperature 72 °F 73 °F 61 °F (1970)
Degree Days  
Heating Degree Days 0 0  
Month to date heating degree days 0 0  
Since 1 June heating degree days 0 0  
Since 1 July heating degree days 529 898  
Cooling Degree Days 17 16  
Month to date cooling degree days 78 64  
Year to date cooling degree days 1096 905  
Since 1 June cooling degree days 78 64  
Growing Degree Days 32 (Base 50)    
Moisture  
Dew Point 70 °F    
Average Humidity 69    
Maximum Humidity 93    
Minimum Humidity 44    
Precipitation  
Precipitation 0.00 in 0.10 in 2.29 in (1951)
Month to date precipitation 0.41 0.41  
Year to date precipitation 5.14 10.68  
Snow  
Snow 0.00 in - - ()
Month to date snowfall 0.0  
Since 1 June snowfall 0.0  
Since 1 July snowfall 0.0  
Snow Depth 0.00 in    
Sea Level Pressure  
Sea Level Pressure 29.86 in    
Wind  
Wind Speed 7 mph (SE)    
Max Wind Speed 17 mph    
Max Gust Speed 21 mph    
Visibility 10 miles    
Events Fog    
T = Trace of Precipitation, MM = Missing Value Source: NWS Daily Summary

Daily Weather History Graph

Daily Weather History Graph

Search for Another Location

Airport or City:

Trip Planner

Search our weather history database for the weather conditions in past years. The results will help you decide how hot, cold, wet, or windy it might be!

Date:

Astronomy

Jun. 04, 2013 Rise Set
Actual Time 6:33 AM CDT 8:23 PM CDT
Civil Twilight 6:07 AM CDT 8:49 PM CDT
Nautical Twilight 5:35 AM CDT 9:21 PM CDT
Astronomical Twilight 5:02 AM CDT 9:55 PM CDT
Moon 3:48 AM CDT (6/4) 5:07 PM CDT (6/4)
Length of Visible Light 14h 42m
Length of Day
13h 49m
Waning Crescent, 14% of the Moon is Illuminated
Jun 4
Waning Crescent
Jun 8
New
Jun 16
First Quarter
Jun 23
Full
Jun 29
Last Quarter

Hourly Weather History & Observations

Time (CDT) Temp. Heat Index Dew Point Humidity Pressure Visibility Wind Dir Wind Speed Gust Speed Precip Events Conditions
12:51 AM 75.0 °F - 70.0 °F 84% 29.88 in 10.0 mi Calm Calm - N/A   Partly Cloudy
1:51 AM 73.9 °F - 70.0 °F 87% 29.87 in 10.0 mi Calm Calm - N/A   Partly Cloudy
2:51 AM 73.9 °F - 70.0 °F 87% 29.85 in 10.0 mi WSW 5.8 mph - N/A   Partly Cloudy
3:51 AM 73.0 °F - 69.1 °F 87% 29.84 in 10.0 mi Calm Calm - N/A   Clear
4:51 AM 72.0 °F - 69.1 °F 91% 29.85 in 10.0 mi SSE 4.6 mph - N/A   Partly Cloudy
5:12 AM 73.4 °F - 69.8 °F 88% 29.85 in 10.0 mi Calm Calm - N/A   Mostly Cloudy
5:51 AM 73.0 °F - 70.0 °F 90% 29.86 in 10.0 mi Calm Calm - N/A   Mostly Cloudy
6:05 AM 73.4 °F - 69.8 °F 88% 29.86 in 10.0 mi Calm Calm - N/A   Mostly Cloudy
6:32 AM 73.4 °F - 69.8 °F 88% 29.86 in 7.0 mi Calm Calm - N/A Fog Shallow Fog
6:51 AM 73.0 °F - 70.0 °F 90% 29.86 in 9.0 mi Calm Calm - N/A Fog Shallow Fog
7:51 AM 77.0 °F - 73.0 °F 88% 29.87 in 10.0 mi Calm Calm - N/A   Partly Cloudy
8:51 AM 80.1 °F 84.2 °F 73.0 °F 79% 29.89 in 10.0 mi SSW 4.6 mph - N/A   Partly Cloudy
9:51 AM 82.0 °F 86.7 °F 72.0 °F 71% 29.89 in 10.0 mi South 8.1 mph - N/A   Scattered Clouds
10:51 AM 84.9 °F 89.4 °F 70.0 °F 61% 29.88 in 10.0 mi SSW 5.8 mph - N/A   Scattered Clouds
11:51 AM 88.0 °F 91.4 °F 68.0 °F 51% 29.88 in 10.0 mi Calm Calm - N/A   Scattered Clouds
12:51 PM 91.0 °F 96.6 °F 70.0 °F 50% 29.88 in 10.0 mi Variable 6.9 mph - N/A   Partly Cloudy
1:51 PM 91.0 °F 96.6 °F 70.0 °F 50% 29.86 in 10.0 mi East 11.5 mph - N/A   Partly Cloudy
2:51 PM 91.0 °F 95.2 °F 68.0 °F 47% 29.85 in 10.0 mi ESE 9.2 mph - N/A   Partly Cloudy
3:51 PM 91.0 °F 94.3 °F 66.9 °F 45% 29.84 in 10.0 mi ESE 8.1 mph - N/A   Partly Cloudy
4:51 PM 91.0 °F 95.2 °F 68.0 °F 47% 29.82 in 10.0 mi East 11.5 mph - N/A   Partly Cloudy
5:51 PM 89.1 °F 94.1 °F 70.0 °F 53% 29.81 in 10.0 mi East 15.0 mph - N/A   Clear
6:51 PM 87.1 °F 91.3 °F 69.1 °F 55% 29.81 in 10.0 mi East 12.7 mph - N/A   Clear
7:51 PM 84.0 °F 87.8 °F 69.1 °F 61% 29.82 in 10.0 mi East 13.8 mph - N/A   Partly Cloudy
8:51 PM 82.0 °F 85.9 °F 70.0 °F 67% 29.84 in 10.0 mi SE 10.4 mph - N/A   Partly Cloudy
9:51 PM 81.0 °F 84.4 °F 70.0 °F 69% 29.85 in 10.0 mi ESE 9.2 mph - N/A   Partly Cloudy
10:51 PM 79.0 °F - 70.0 °F 74% 29.86 in 10.0 mi SE 6.9 mph - N/A   Partly Cloudy
11:51 PM 78.1 °F - 70.0 °F 76% 29.86 in 10.0 mi SE 6.9 mph - N/A   Partly Cloudy